Weather in Varvarovshchina

Russia / Smolensk Oblast     54°56′10″N   32°23′06″E
temp.,
°C
wind,
m/s
gust,
m/s
humid.,
%
clouds,
%
prec.,
mm/h
press.,
hPa
HPBL,
m
19 april, mon
mon1900:00+5nne24895 0.0 102283
03:00+4ne399375 0.0 1022241
06:00+4ne399295 0.0 1022289
09:00+6ne488198 0.0 1022503
12:00+8e488193 0.1 1022959
15:00+8ene4879100 0.3 1022916
18:00+9ne597596 0.1 1021957
21:00+7ene5107698 0.1 1021836
20 april, tue
tue2000:00+6ene41084100 0.1 1020694
03:00+5ene4987100 0.1 1019727
06:00+3ene4896100 0.5 1018712
09:00+3ene4996100 0.8 1018528
12:00+3ene4897100 0.5 1017539
15:00+3ene4997100 0.6 1016577
18:00+4ene3894100 0.2 1014703
21:00+4ene4889100 0.3 1013583
21 april, wed
wed2100:00+3ne3794100 0.0 1010550
03:00+2n3697100 0.0 1008606
06:00+2nw3797100 0.1 1006636
09:00+3wnw4893100 0.1 1005665
12:00+6wnw5873100 0.1 10051191
15:00+7wsw6879100 0.4 10061027
18:00+6wsw587555 0.3 10071041
21:00+4sw3890100 0.3 1008220
22 april, thu
thu2200:00+4s289299 0.3 1008358
03:00+3ssw279855 1.0 1009177
06:00+3ssw2698100 0.1 1010147
09:00+8ssw36795 0.1 1011398
12:00+12ssw465768 0.2 10111578
15:00+12ssw56656 0.8 10121069
18:00+12s47715 1.1 1012936
21:00+8ssw38875 1.9 1013152
23 april, fri
fri2300:00+6s269141 0.0 1014106
03:00+5s399189 0.0 1013199
06:00+6sse41492100 0.0 1012446
09:00+10s5128156 0.1 1011730
12:00+11sw51178100 0.6 10091389
15:00+4wnw5894100 1.6 1011548
18:00+4w358896 0.7 1012483
21:00+4sw3584100 0.7 1013580